Location: Brachstadt
(48.6975°N, 10.6755°E)
Time: 09:32:06
(UTC+00:00)

NOSS 3-2 (C) - Pass Details

Date: 18 September 2020
Orbit: 795 x 1418 km, 63.4° (Epoch: 25 October)

Event Time Altitude Azimuth Distance (km) Brightness Sun altitude
Rises 18:43:37 0° 317° (NW) 3,864 7.8 -13.9°
Reaches altitude 10° 18:46:11 10° 321° (NW) 2,993 7.0 -14.3°
Maximum altitude 18:53:20 57° 40° (NE) 1,438 4.2 -15.4°
Enters shadow 18:58:45 22° 111° (ESE) 2,530 5.0 -16.2°
